Location: Harwich
(41.7160°N, 69.9939°W)
Time: 08:40:03
(UTC+02:00)

BlueWalker 3 - Visible Passes

Search period start: 12 September 2024 00:00
Search period end: 22 September 2024 00:00
Orbit: 476 x 487 km, 53.2° (Epoch: 11 September)

Date Brightness Start Highest point End Pass type
(mag) Time Alt. Az. Time Alt. Az. Time Alt. Az.
12 Sep 2.2 02:08:01 10° NW 02:11:43 53° NE 02:13:19 29° E visible
12 Sep 4.7 03:46:37 10° W 03:47:34 15° W 03:47:34 15° W visible
13 Sep 2.3 01:40:33 10° NW 01:44:12 48° NNE 01:47:00 16° ESE visible
13 Sep 4.0 03:19:01 10° WNW 03:21:15 22° WSW 03:21:15 22° WSW visible
14 Sep 2.4 01:13:03 10° NW 01:16:40 44° NNE 01:20:16 10° ESE visible
14 Sep 3.5 02:51:23 10° WNW 02:54:32 26° SW 02:54:59 25° SW visible
15 Sep 3.5 02:23:45 10° WNW 02:27:01 29° SW 02:28:48 19° S visible
16 Sep 3.4 01:56:05 10° WNW 01:59:27 32° SW 02:02:42 11° SSE visible
17 Sep 3.2 01:28:24 10° WNW 01:31:52 36° SW 01:35:19 10° SSE visible
